TimeCST,TemperatureF,Dew PointF,Humidity,Sea Level PressureIn,VisibilityMPH,Wind Direction,Wind SpeedMPH,Gust SpeedMPH,PrecipitationIn,Events,Conditions,WindDirDegrees,DateUTC
12:53 AM,43.0,36.0,76,30.16,10.0,South,4.6,-,N/A,,Clear,170,2012-11-09 06:53:00
1:53 AM,44.1,36.0,73,30.17,10.0,South,4.6,-,N/A,,Clear,170,2012-11-09 07:53:00
2:53 AM,43.0,36.0,76,30.18,10.0,SSE,6.9,-,N/A,,Clear,160,2012-11-09 08:53:00
3:53 AM,43.0,36.0,76,30.18,10.0,SSE,5.8,-,N/A,,Clear,150,2012-11-09 09:53:00
4:53 AM,44.1,37.0,76,30.19,10.0,SSE,8.1,-,N/A,,Clear,160,2012-11-09 10:53:00
5:53 AM,44.1,37.9,79,30.18,10.0,South,10.4,-,N/A,,Clear,170,2012-11-09 11:53:00
6:53 AM,45.0,37.9,76,30.19,10.0,South,9.2,-,N/A,,Clear,180,2012-11-09 12:53:00
7:53 AM,48.9,39.9,71,30.20,10.0,South,8.1,-,N/A,,Partly Cloudy,170,2012-11-09 13:53:00
8:53 AM,55.0,41.0,59,30.20,10.0,South,10.4,-,N/A,,Clear,190,2012-11-09 14:53:00
9:53 AM,61.0,41.0,48,30.20,10.0,SSW,19.6,25.3,N/A,,Clear,210,2012-11-09 15:53:00
10:53 AM,64.9,42.1,43,30.18,10.0,SSW,17.3,23.0,N/A,,Clear,200,2012-11-09 16:53:00
11:53 AM,69.1,45.0,42,30.15,10.0,SSW,17.3,26.5,N/A,,Clear,210,2012-11-09 17:53:00
12:53 PM,70.0,48.0,46,30.12,10.0,South,18.4,24.2,N/A,,Clear,190,2012-11-09 18:53:00
1:53 PM,71.1,51.1,49,30.10,10.0,SSW,11.5,24.2,N/A,,Clear,200,2012-11-09 19:53:00
2:53 PM,71.1,53.1,53,30.09,10.0,SSW,12.7,21.9,N/A,,Clear,200,2012-11-09 20:53:00
3:53 PM,70.0,52.0,53,30.08,10.0,SSW,16.1,24.2,N/A,,Clear,200,2012-11-09 21:53:00
4:53 PM,66.0,52.0,60,30.08,10.0,South,10.4,-,N/A,,Clear,180,2012-11-09 22:53:00
5:53 PM,61.0,50.0,67,30.09,10.0,SSE,8.1,-,N/A,,Clear,160,2012-11-09 23:53:00
6:53 PM,61.0,48.0,62,30.09,10.0,South,10.4,-,N/A,,Clear,170,2012-11-10 00:53:00
7:53 PM,59.0,43.0,55,30.10,10.0,South,8.1,-,N/A,,Clear,180,2012-11-10 01:53:00
8:53 PM,57.9,42.1,56,30.11,10.0,South,10.4,-,N/A,,Clear,170,2012-11-10 02:53:00
9:53 PM,55.9,41.0,57,30.12,10.0,South,9.2,-,N/A,,Clear,180,2012-11-10 03:53:00
11:53 PM,53.1,41.0,64,30.12,10.0,South,6.9,-,N/A,,Clear,180,2012-11-10 05:53:00